Location: Briaroaks Volunteer Fire Station
(32.5042°N, 97.3056°W)
Time: 18:44:01
(UTC+00:00)

Daily predictions for brighter satellites

Satellite Brightness Start Highest point End
(mag) Time Altitude Azimuth Time Altitude Azimuth Time Altitude Azimuth
Lacrosse 5 rocket 3.4 12:01:59 10° N 12:03:52 14° NE 12:05:43 10° ENE
Lacrosse 4 Rocket 4.0 12:02:28 10° NNE 12:04:45 15° ENE 12:07:01 10° E
Okean 1 Rocket 3.4 12:01:02 10° N 12:05:19 67° E 12:09:35 10° SSE
Meteor 2-17 Rocket 4.4 12:00:50 10° SSW 12:06:49 65° W 12:12:53 10° N
Hubble Space Telescope 2.1 12:03:36 10° SW 12:07:00 31° SSE 12:10:24 10° ESE
ATLAS 3B R/B 4.0 12:03:11 15° W 12:07:19 23° NW 12:13:20 10° N
Helios 1A Rocket 2.3 12:05:50 10° S 12:09:11 71° WSW 12:12:32 10° NNW
Sich 1 Rocket 3.7 12:05:34 10° N 12:10:04 79° E 12:14:29 10° S
Cosmos 968 Rocket 3.5 12:04:53 10° NNW 12:10:04 64° WSW 12:15:13 10° S
CENTAUR R/B 3.5 12:02:33 10° NNW 12:11:28 90° NNE 12:21:01 10° SSE
COSMO-SKYMED 1 2.4 12:08:12 10° S 12:12:18 82° WSW 12:16:26 10° NNW
Cosmos 1484 Rocket 2.4 12:12:20 10° N 12:15:50 73° WNW 12:19:16 10° SSW
IRS-1D 4.4 12:15:57 10° NNW 12:19:56 25° WNW 12:23:56 10° WSW
SL-8 R/B 3.8 12:15:21 10° WSW 12:20:00 53° NW 12:24:40 10° NE
CZ-3 R/B 2.3 12:08:12 10° W 12:22:23 65° S 12:27:20 10° ESE
Cosmos 1812 4.1 12:22:44 11° W 12:22:44 11° W 12:23:19 10° WSW
SJ 16-02 3.2 12:22:31 10° W 12:23:12 11° W 12:24:10 10° WSW
IGS 5A 3.3 12:23:48 10° N 12:27:46 84° WNW 12:31:44 10° SSW
OAO 1 Rocket 4.5 12:23:24 10° W 12:28:40 72° N 12:33:57 10° ENE
Cosmos 1302 Rocket 4.4 12:24:48 10° SW 12:29:37 40° WNW 12:34:29 10° N
Cosmos 1741 Rocket 4.1 12:24:45 10° NNW 12:29:57 58° WSW 12:35:06 10° S
Cosmos 1975 Rocket 3.6 12:26:02 10° S 12:30:14 62° E 12:34:28 10° NNE
USA 234 3.9 12:24:51 10° ESE 12:31:11 54° NE 12:37:32 10° NNW
Cosmos 1992 Rocket 4.0 12:29:02 10° SSW 12:34:13 74° WNW 12:39:26 10° NNE
Cosmos 1441 Rocket 3.3 12:32:03 10° SSW 12:35:10 38° W 12:38:18 10° N
Tsikada Rocket 4.0 12:30:55 10° S 12:37:13 77° W 12:43:37 10° N
Cosmos 1025 Rocket 4.3 12:36:38 10° SW 12:39:56 21° WNW 12:43:15 10° NNW
GOES 2 Rocket 3.9 12:36:29 10° WSW 12:40:29 45° S 12:44:40 10° E
